Flag for Germany Weather past 2 weeks in Stendal, Saxony-Anhalt, Germany

Now
70 °F

Scattered clouds.


Feels Like: 76 °F
Forecast: 45 / 58 °F
Wind: 7 mph from Southwest

Location: Magdeburg

Current Time: May 6, 2015 at 4:41:10 PM

Latest Report: May 6, 2015 at 4:00 PM


Visibility: 37 mi

Pressure: 29.85 "Hg

Humidity: 29%

Dew point: 36 °F

Location of StendalLocation

Historic Weather in Stendal — Graph

°F

Stendal temperature yesterday

Maximum temperature yesterday: 79 °F (at 6:00 PM)
Minimum temperature yesterday: 57 °F (at 1:00 AM)
Average temperature yesterday: 64 °F

Past Weeks' High & Low Weather Summary

 TemperatureHumidityPressure
High79 °F (May 5, 6:00 PM)98% (May 4, 3:00 AM)30.35 "Hg (May 4, 3:00 AM)
Low35 °F (Apr 29, 4:00 AM)24% (Apr 21, 3:00 PM)29.57 "Hg (May 5, 4:00 PM)
Average53 °F69%29.89 "Hg
* Reported Apr 21 3:00 PM — May 6 3:00 PM, Stendal, Weather by CustomWeather, © 2015

Note: Actual official high and low records may vary slightly from our data, if they occured in-between our weather recording intervals... More about our weather records

Advertising

Stendal weather history for previous 24 hours

 ConditionsComfort  
Time TempWeatherWind HumidityBarometerVisibility
3:00 PM
Wed, May 6
69 °FScattered clouds.7 mph31%29.85 "Hg37 mi
2:00 PM68 °FPartly sunny.7 mph42%29.86 "Hg28 mi
1:00 PM66 °FPartly sunny.7 mph43%29.88 "Hg28 mi
12:00 PM65 °FOvercast.6 mph42%29.89 "Hg28 mi
11:00 AM64 °FPartly sunny.3 mph62%29.89 "Hg28 mi
10:00 AM62 °FOvercast.5 mph64%29.90 "Hg28 mi
9:00 AM61 °FPartly sunny.5 mph66%29.90 "Hg25 mi
8:00 AM57 °FScattered clouds.1 mph77%29.89 "Hg22 mi
7:00 AM53 °FPartly sunny.1 mph81%29.89 "Hg22 mi
6:00 AM52 °FOvercast.2 mph87%29.89 "Hg19 mi
4:00 AM50 °FPassing clouds.2 mph91%29.90 "Hg11 mi
3:00 AM51 °FPassing clouds.1 mph93%29.89 "Hg9 mi
2:00 AM51 °FPassing clouds.1 mph89%29.88 "Hg12 mi
1:00 AM51 °FClear.1 mph91%29.87 "Hg9 mi
12:00 AM55 °FClear.2 mph86%29.85 "Hg18 mi
11:00 PM
Tue, May 5
58 °FPassing clouds.3 mph78%29.82 "Hg25 mi
10:00 PM59 °FPassing clouds.3 mph76%29.78 "Hg37 mi
9:00 PM62 °FPassing clouds.6 mph74%29.73 "Hg31 mi
8:00 PM64 °FSprinkles. Overcast.7 mph74%29.68 "Hg16 mi
7:00 PM77 °FPartly sunny.6 mph41%29.59 "Hg28 mi
6:00 PM79 °FScattered clouds.6 mph39%29.57 "Hg25 mi
5:00 PM79 °FScattered clouds.7 mph46%29.57 "Hg22 mi
4:00 PM74 °FOvercast.5 mph69%29.57 "Hg22 mi
Weather by CustomWeather, © 2015

See weather overviewHow to use our weather pages